Погода в Новоселовке

Россия / Саратовская область     51°56′47″N   44°16′11″E
темп.,
°C
ветер,
м/с
пор.,
м/с
влажн.,
%
обл.,
%
осадки,
мм/ч
давл.,
гПа
погр.,
м
24 января, пн
пн2401:00−6в51195100 1.1 1029334
04:00−8всв51191100 1.3 1029301
07:00−11всв51287100 0.0 1030243
10:00−11всв61388100 0.0 1031281
13:00−9в5138857 0.0 1030337
16:00−9всв5119099 0.0 1030304
19:00−11в513927 0.0 1031239
22:00−12в5139133 0.0 1030226
25 января, вт
вт2501:00−13в41293100 0.0 1030198
04:00−14вюв4109586 0.0 1030166
07:00−14в499558 0.0 1028144
10:00−14вюв41096100 0.0 1028162
13:00−10юв5994100 0.0 1026237
16:00−9юв479590 0.1 1024247
19:00−10ююв369774 0.2 1024129
22:00−11ююв389785 0.2 1023133
26 января, ср
ср2601:00−11ю379786 0.1 1022116
04:00−11ю359775 0.2 102190
07:00−11ю359781 0.1 102074
10:00−10ююз3697100 0.2 1020133
13:00−7юз4795100 0.1 1019294
16:00−7юз369797 0.2 1020215
19:00−13ююз34100100 0.0 102141
22:00−15юз35100100 0.1 102248
27 января, чт
чт2701:00−12юз369892 0.1 1022102
04:00−14ююз349990 0.1 102252
07:00−12ю369782 0.1 102293
10:00−13ююз369989 0.1 102264
13:00−8ююз369684 0.1 1021178
16:00−7ююз259773 0.1 1021142
19:00−13ю33100100 0.0 102137
22:00−14ю23100100 0.1 102135
28 января, пт
пт2801:00−10ю249778 0.1 102065
04:00−11ю239979 0.2 101939
07:00−11ю359890 0.1 101969
10:00−12ю359999 0.1 101966
13:00−8ю489790 0.0 1017218
16:00−8ююв499686 0.1 1016259
19:00−11ююв51298100 0.0 1015188
22:00−9ююв61395100 0.0 1013324